DAL1156 KDCA-KDTW

Flight info

Callsign DAL1156
Flight time 0h 54m
Altitude 34000
Route HORTO4 BUFFR Q178 KOZAR BONZZ2
Aircraft B738/M-VGDW/C

Departure

Time 2026-04-25 22:19
Airport Ronald Reagan Washington National Airport (KDCA)

Arrival

Time 2026-04-25 23:14
Airport Detroit Metropolitan Wayne County Airport (KDTW)
Time Latitude Longitude Altitude Speed Heading
2026-04-25 22:09 38.85149 -77.04103 27 ft 0 kts 321°
2026-04-25 22:13 38.85148 -77.04102 27 ft 0 kts 321°
2026-04-25 22:13 38.85138 -77.04091 27 ft 2 kts 317°
2026-04-25 22:13 38.85127 -77.04079 26 ft 2 kts 319°
2026-04-25 22:13 38.85117 -77.04068 26 ft 0 kts 319°
2026-04-25 22:14 38.85109 -77.04057 25 ft 2 kts 319°
2026-04-25 22:14 38.85099 -77.04047 25 ft 0 kts 319°
2026-04-25 22:14 38.85097 -77.04044 25 ft 0 kts 320°
2026-04-25 22:16 38.85099 -77.04046 25 ft 0 kts 327°
2026-04-25 22:16 38.85101 -77.04045 25 ft 0 kts
2026-04-25 22:16 38.85116 -77.04038 25 ft 3 kts 19°
2026-04-25 22:16 38.85146 -77.04024 24 ft 5 kts 20°
2026-04-25 22:17 38.85183 -77.04002 24 ft 6 kts 28°
2026-04-25 22:17 38.85243 -77.03986 24 ft 12 kts 358°
2026-04-25 22:17 38.85345 -77.03997 24 ft 15 kts 353°
2026-04-25 22:17 38.85450 -77.04006 24 ft 15 kts 354°
2026-04-25 22:18 38.85552 -77.03999 23 ft 15 kts 34°
2026-04-25 22:18 38.85656 -77.03966 20 ft 15 kts 352°
2026-04-25 22:18 38.85761 -77.03980 20 ft 15 kts 355°
2026-04-25 22:18 38.85870 -77.03984 19 ft 15 kts
2026-04-25 22:19 38.85885 -77.03868 18 ft 24 kts 147°
2026-04-25 22:19 38.85401 -77.03800 21 ft 126 kts 176°
2026-04-25 22:19 38.84257 -77.03673 453 ft 190 kts 175°
2026-04-25 22:19 38.82923 -77.03559 1728 ft 206 kts 179°
2026-04-25 22:20 38.81469 -77.03562 2853 ft 223 kts 181°
2026-04-25 22:20 38.79902 -77.03559 3960 ft 238 kts 180°
2026-04-25 22:20 38.78243 -77.03795 5089 ft 251 kts 197°
2026-04-25 22:20 38.76670 -77.04821 6160 ft 264 kts 220°
2026-04-25 22:21 38.75407 -77.06553 7203 ft 277 kts 239°
2026-04-25 22:21 38.74696 -77.08784 8382 ft 282 kts 262°
2026-04-25 22:21 38.74522 -77.11255 9718 ft 285 kts 268°
2026-04-25 22:21 38.74397 -77.13752 10949 ft 289 kts 268°
2026-04-25 22:22 38.74242 -77.16394 11833 ft 305 kts 268°
2026-04-25 22:22 38.74245 -77.19141 12692 ft 320 kts 277°
2026-04-25 22:22 38.74810 -77.21935 13494 ft 336 kts 295°
2026-04-25 22:22 38.76051 -77.24513 14256 ft 352 kts 309°
2026-04-25 22:23 38.77777 -77.26704 15291 ft 358 kts 322°
2026-04-25 22:23 38.79952 -77.28257 16352 ft 363 kts 336°
2026-04-25 22:23 38.82320 -77.29446 17330 ft 370 kts 339°
2026-04-25 22:23 38.84747 -77.30593 18304 ft 376 kts 338°
2026-04-25 22:24 38.87177 -77.31860 19263 ft 381 kts 335°
2026-04-25 22:24 38.89587 -77.33250 20188 ft 386 kts 334°
2026-04-25 22:24 38.92027 -77.34693 21051 ft 392 kts 333°
2026-04-25 22:24 38.94532 -77.36176 21915 ft 397 kts 333°
2026-04-25 22:25 38.97030 -77.37650 22716 ft 403 kts 333°
2026-04-25 22:25 38.99620 -77.39176 23535 ft 408 kts 333°
2026-04-25 22:25 39.02211 -77.40702 24290 ft 414 kts 333°
2026-04-25 22:25 39.04820 -77.42239 25044 ft 419 kts 333°
2026-04-25 22:26 39.07491 -77.43812 25785 ft 424 kts 333°
2026-04-25 22:26 39.10157 -77.45380 26430 ft 430 kts 333°
2026-04-25 22:26 39.12964 -77.46812 27139 ft 435 kts 338°
2026-04-25 22:26 39.15862 -77.48038 27786 ft 441 kts 340°
2026-04-25 22:27 39.18809 -77.49197 28396 ft 447 kts 340°
2026-04-25 22:27 39.21816 -77.50359 28974 ft 453 kts 340°
2026-04-25 22:27 39.24820 -77.51520 29630 ft 456 kts 340°
2026-04-25 22:27 39.27863 -77.52705 30176 ft 461 kts 340°
2026-04-25 22:28 39.30945 -77.53912 30561 ft 470 kts 341°
2026-04-25 22:28 39.34101 -77.55152 31114 ft 473 kts 342°
2026-04-25 22:28 39.37215 -77.56486 31755 ft 474 kts 339°
2026-04-25 22:28 39.40238 -77.58244 32261 ft 479 kts 332°
2026-04-25 22:29 39.43009 -77.60664 32717 ft 484 kts 320°
2026-04-25 22:29 39.45430 -77.63694 33170 ft 489 kts 313°
2026-04-25 22:29 39.47587 -77.67062 33583 ft 494 kts 305°
2026-04-25 22:30 39.50703 -77.75000 34354 ft 503 kts 291°
2026-04-25 22:30 39.51994 -77.79260 34367 ft 512 kts 289°
2026-04-25 22:30 39.54102 -77.86538 34364 ft 520 kts 289°
2026-04-25 22:31 39.57117 -77.96649 34364 ft 517 kts 290°
2026-04-25 22:31 39.59757 -78.05291 34365 ft 517 kts 290°
2026-04-25 22:32 39.62389 -78.13923 34365 ft 518 kts 290°
2026-04-25 22:32 39.65024 -78.22586 34365 ft 517 kts 290°
2026-04-25 22:33 39.67643 -78.31222 34365 ft 517 kts 290°
2026-04-25 22:33 39.70277 -78.39928 34366 ft 517 kts 290°
2026-04-25 22:34 39.72891 -78.48602 34366 ft 518 kts 290°
2026-04-25 22:34 39.75503 -78.57298 34366 ft 517 kts 290°
2026-04-25 22:35 39.78101 -78.65976 34366 ft 518 kts 289°
2026-04-25 22:35 39.80683 -78.74628 34366 ft 517 kts 289°
2026-04-25 22:36 39.83274 -78.83334 34368 ft 518 kts 289°
2026-04-25 22:36 39.85870 -78.92084 34372 ft 517 kts 290°
2026-04-25 22:37 39.88439 -79.00776 34375 ft 517 kts 289°
2026-04-25 22:37 39.91012 -79.09503 34375 ft 518 kts 289°
2026-04-25 22:38 39.93568 -79.18210 34374 ft 517 kts 289°
2026-04-25 22:38 39.96119 -79.26928 34374 ft 518 kts 289°
2026-04-25 22:39 39.98695 -79.35621 34373 ft 518 kts 291°
2026-04-25 22:39 40.01810 -79.44038 34373 ft 518 kts 300°
2026-04-25 22:40 40.05683 -79.51954 34371 ft 519 kts 304°
2026-04-25 22:40 40.09723 -79.59769 34369 ft 519 kts 304°
2026-04-25 22:41 40.13738 -79.67561 34368 ft 519 kts 303°
2026-04-25 22:41 40.17718 -79.75343 34367 ft 518 kts 303°
2026-04-25 22:42 40.21701 -79.83160 34366 ft 519 kts 303°
2026-04-25 22:42 40.25684 -79.90999 34367 ft 519 kts 303°
2026-04-25 22:43 40.29673 -79.98873 34367 ft 519 kts 303°
2026-04-25 22:43 40.33628 -80.06698 34367 ft 518 kts 303°
2026-04-25 22:44 40.37594 -80.14567 34367 ft 519 kts 303°
2026-04-25 22:44 40.41575 -80.22484 34367 ft 519 kts 303°
2026-04-25 22:45 40.45518 -80.30351 34367 ft 519 kts 303°
2026-04-25 22:45 40.49451 -80.38216 34367 ft 518 kts 303°
2026-04-25 22:46 40.53408 -80.46148 34367 ft 519 kts 303°
2026-04-25 22:46 40.57341 -80.54051 34367 ft 519 kts 303°
2026-04-25 22:47 40.61066 -80.62134 34367 ft 518 kts 298°
2026-04-25 22:47 40.64336 -80.70543 34367 ft 518 kts 295°
2026-04-25 22:48 40.67559 -80.79013 34367 ft 518 kts 296°
2026-04-25 22:48 40.70797 -80.87420 34367 ft 518 kts 296°
2026-04-25 22:49 40.74059 -80.95879 34367 ft 518 kts 296°
2026-04-25 22:49 40.77313 -81.04334 34367 ft 519 kts 296°
2026-04-25 22:50 40.80552 -81.12768 34367 ft 517 kts 296°
2026-04-25 22:50 40.83810 -81.21273 34367 ft 519 kts 296°
2026-04-25 22:51 40.87031 -81.29709 34367 ft 518 kts 296°
2026-04-25 22:51 40.90267 -81.38205 34367 ft 518 kts 296°
2026-04-25 22:52 40.93489 -81.46692 34367 ft 518 kts 296°
2026-04-25 22:52 40.96164 -81.53758 34367 ft 518 kts 296°
2026-04-25 22:53 40.99926 -81.63719 34367 ft 518 kts 296°
2026-04-25 22:53 41.03114 -81.72185 34367 ft 518 kts 295°
2026-04-25 22:54 41.06314 -81.80711 34366 ft 519 kts 295°
2026-04-25 22:54 41.09463 -81.89125 34074 ft 504 kts 295°
2026-04-25 22:55 41.11017 -81.93288 33440 ft 500 kts 295°
2026-04-25 22:55 41.12534 -81.97359 32674 ft 497 kts 295°
2026-04-25 22:55 41.14055 -82.01442 31809 ft 495 kts 294°
2026-04-25 22:55 41.15561 -82.05492 30864 ft 487 kts 294°
2026-04-25 22:56 41.17026 -82.09430 29945 ft 469 kts 293°
2026-04-25 22:56 41.18422 -82.13183 29029 ft 454 kts 294°
2026-04-25 22:56 41.19804 -82.16911 28082 ft 451 kts 294°
2026-04-25 22:56 41.21247 -82.20570 27532 ft 440 kts 297°
2026-04-25 22:57 41.22851 -82.23908 27382 ft 424 kts 304°
2026-04-25 22:57 41.24806 -82.26718 27162 ft 412 kts 314°
2026-04-25 22:57 41.26991 -82.29198 26522 ft 409 kts 318°
2026-04-25 22:57 41.29179 -82.31499 25868 ft 407 kts 319°
2026-04-25 22:58 41.31406 -82.33804 25253 ft 402 kts 319°
2026-04-25 22:58 41.33580 -82.36060 24660 ft 397 kts 319°
2026-04-25 22:58 41.35748 -82.38321 24071 ft 392 kts 319°
2026-04-25 22:58 41.37853 -82.40520 23498 ft 387 kts 319°
2026-04-25 22:59 41.39950 -82.42719 22927 ft 382 kts 319°
2026-04-25 22:59 41.42024 -82.44898 22361 ft 377 kts 320°
2026-04-25 22:59 41.44078 -82.47058 21797 ft 373 kts 320°
2026-04-25 22:59 41.46087 -82.49175 21244 ft 368 kts 320°
2026-04-25 23:00 41.48063 -82.51260 20697 ft 364 kts 320°
2026-04-25 23:00 41.50041 -82.53349 20148 ft 360 kts 320°
2026-04-25 23:00 41.51965 -82.55383 19612 ft 355 kts 320°
2026-04-25 23:00 41.53887 -82.57417 19076 ft 351 kts 321°
2026-04-25 23:01 41.55784 -82.59428 18595 ft 345 kts 321°
2026-04-25 23:01 41.57627 -82.61382 18330 ft 334 kts 321°
2026-04-25 23:01 41.59442 -82.63309 18045 ft 333 kts 321°
2026-04-25 23:01 41.61300 -82.65284 17412 ft 351 kts 320°
2026-04-25 23:02 41.63040 -82.67477 16933 ft 347 kts 311°
2026-04-25 23:02 41.64556 -82.69972 16279 ft 345 kts 307°
2026-04-25 23:02 41.66017 -82.72523 15676 ft 343 kts 307°
2026-04-25 23:02 41.67472 -82.75005 15091 ft 340 kts 308°
2026-04-25 23:03 41.68933 -82.77436 14387 ft 341 kts 309°
2026-04-25 23:03 41.70422 -82.79878 13669 ft 341 kts 309°
2026-04-25 23:03 41.71926 -82.82329 12945 ft 341 kts 310°
2026-04-25 23:03 41.73440 -82.84791 12217 ft 341 kts 310°
2026-04-25 23:04 41.74922 -82.87202 11503 ft 340 kts 310°
2026-04-25 23:04 41.75920 -82.88824 11022 ft 339 kts 310°
2026-04-25 23:04 41.77908 -82.92059 10060 ft 338 kts 310°
2026-04-25 23:04 41.79393 -82.94476 9339 ft 336 kts 310°
2026-04-25 23:05 41.80864 -82.96873 8621 ft 334 kts 310°
2026-04-25 23:05 41.82332 -82.99266 7901 ft 333 kts 310°
2026-04-25 23:05 41.83794 -83.01653 7179 ft 331 kts 310°
2026-04-25 23:05 41.85235 -83.04008 6464 ft 329 kts 310°
2026-04-25 23:06 41.86691 -83.06386 5737 ft 327 kts 310°
2026-04-25 23:06 41.88106 -83.08703 5025 ft 324 kts 310°
2026-04-25 23:06 41.89522 -83.11020 4308 ft 322 kts 310°
2026-04-25 23:06 41.90928 -83.13325 3621 ft 312 kts 310°
2026-04-25 23:07 41.92244 -83.15485 3340 ft 285 kts 310°
2026-04-25 23:07 41.93422 -83.17423 3311 ft 255 kts 310°
2026-04-25 23:07 41.94528 -83.19241 3319 ft 244 kts 310°
2026-04-25 23:07 41.95594 -83.20992 3336 ft 239 kts 310°
2026-04-25 23:08 41.96641 -83.22711 3312 ft 236 kts 310°
2026-04-25 23:08 41.97671 -83.24406 3314 ft 233 kts 310°
2026-04-25 23:08 41.98680 -83.26067 3316 ft 230 kts 310°
2026-04-25 23:08 41.99686 -83.27721 3317 ft 227 kts 310°
2026-04-25 23:09 42.00688 -83.29372 3317 ft 225 kts 310°
2026-04-25 23:09 42.01670 -83.30991 3317 ft 222 kts 310°
2026-04-25 23:09 42.02644 -83.32598 3318 ft 220 kts 310°
2026-04-25 23:09 42.03608 -83.34189 3317 ft 218 kts 310°
2026-04-25 23:10 42.04557 -83.35754 3317 ft 217 kts 310°
2026-04-25 23:10 42.05512 -83.37331 3318 ft 215 kts 310°
2026-04-25 23:10 42.06455 -83.38891 3318 ft 213 kts 310°
2026-04-25 23:10 42.07388 -83.40431 3317 ft 212 kts 312°
2026-04-25 23:11 42.08501 -83.41666 3309 ft 209 kts 337°
2026-04-25 23:11 42.09940 -83.41917 3164 ft 216 kts
2026-04-25 23:11 42.11374 -83.41124 2840 ft 230 kts 27°
2026-04-25 23:11 42.12763 -83.40121 2390 ft 219 kts 26°
2026-04-25 23:12 42.14023 -83.39227 2325 ft 191 kts 27°
2026-04-25 23:12 42.15138 -83.38407 2274 ft 174 kts 28°
2026-04-25 23:12 42.16174 -83.37637 1861 ft 171 kts 26°
2026-04-25 23:12 42.17223 -83.36921 1485 ft 165 kts 27°
2026-04-25 23:13 42.18221 -83.36182 1075 ft 166 kts 28°
2026-04-25 23:13 42.19215 -83.35424 813 ft 160 kts 28°
2026-04-25 23:13 42.20168 -83.34737 656 ft 150 kts 27°
2026-04-25 23:13 42.21057 -83.34082 637 ft 141 kts 29°
2026-04-25 23:14 42.21658 -83.33646 636 ft 46 kts 32°
2026-04-25 23:14 42.21847 -83.33617 635 ft 16 kts 283°
2026-04-25 23:14 42.21851 -83.33762 636 ft 15 kts 269°
2026-04-25 23:14 42.21849 -83.33974 636 ft 24 kts 270°
2026-04-25 23:15 42.21844 -83.34139 636 ft 17 kts 268°
2026-04-25 23:15 42.21842 -83.34301 639 ft 16 kts 270°
2026-04-25 23:15 42.21845 -83.34457 639 ft 16 kts 271°
2026-04-25 23:15 42.21840 -83.34617 639 ft 17 kts 269°
2026-04-25 23:16 42.21801 -83.34766 639 ft 17 kts 232°
2026-04-25 23:16 42.21693 -83.34908 639 ft 25 kts 225°
2026-04-25 23:16 42.21575 -83.35080 639 ft 25 kts 245°
2026-04-25 23:16 42.21550 -83.35310 639 ft 25 kts 270°
2026-04-25 23:17 42.21491 -83.35508 643 ft 23 kts 218°
2026-04-25 23:17 42.21373 -83.35592 643 ft 10 kts 182°
2026-04-25 23:17 42.21330 -83.35538 643 ft 4 kts 118°
2026-04-25 23:17 42.21320 -83.35513 643 ft 1 kts 119°
2026-04-25 23:18 42.21319 -83.35511 643 ft 0 kts 119°